This demonstration page uses our WeatherBlox Daily Observations layout. Learn more.

Left ArrowRight Arrow

Hourly Observations for February 7, 2022

Temp ( °F °C ) Dew Point ( °F °C ) Humidity (%) Winds ( mph kmh ) Pressure ( in mb ) Visibility ( mi km ) Precip ( " mm )
12:56 am 00:56 Clear 22 -5.5 14 -10.1 70 70 Calm 30.36 1028 10 16 0.00 0.00
1:56 am 01:56 Cloudy 24 -4.4 15 -9.4 68 68 S 5 7 30.33 1027 10 16 0.00 0.00
2:56 am 02:56 Cloudy 23 -4.9 15 -9.2 72 72 Calm 30.34 1027 10 16 0.00 0.00
3:56 am 03:56 Mostly Cloudy 24 -4.4 16 -8.9 71 71 Calm 30.32 1027 10 16 0.00 0.00
4:56 am 04:56 Mostly Cloudy 24 -4.5 16 -9 71 71 SSE 5 7 30.30 1026 10 16 0.00 0.00
5:56 am 05:56 Cloudy 25 -3.9 17 -8.6 70 70 Calm 30.27 1025 10 16 0.00 0.00
6:56 am 06:56 Cloudy 26 -3.5 16 -8.8 67 67 Calm 30.26 1025 9 14 0.00 0.00
7:56 am 07:56 Cloudy 26 -3.2 17 -8.1 69 69 Calm 30.25 1024 10 16 0.00 0.00
8:56 am 08:56 Cloudy 28 -2 19 -7.5 66 66 Calm 30.25 1024 10 16 0.00 0.00
9:56 am 09:56 Mostly Cloudy 36 2.1 21 -6.2 55 55 Calm 30.25 1024 10 16 0.00 0.00
10:56 am 10:56 Mostly Cloudy 44 6.7 22 -5.6 41 41 Calm 30.23 1024 10 16 0.00 0.00
11:56 am 11:56 Sunny 48 9.1 21 -5.9 34 34 Calm 30.20 1023 10 16 0.00 0.00
12:56 pm 12:56 Sunny 53 11.5 22 -5.5 30 30 W 8 13 30.16 1021 9 14 0.00 0.00
1:56 pm 13:56 Sunny 56 13.5 23 -5.1 27 27 W 3 6 30.13 1020 10 16 0.00 0.00
2:56 pm 14:56 Mostly Sunny 58 14.2 22 -5.6 25 25 WNW 6 9 30.11 1020 10 16 0.00 0.00
3:56 pm 15:56 Sunny 59 14.8 22 -5.6 24 24 W 9 15 30.10 1019 10 16 0.00 0.00
4:56 pm 16:56 Sunny 58 14.2 21 -6.1 24 24 W 9 15 30.08 1019 10 16 0.00 0.00
5:56 pm 17:56 undefined 51 10.6 22 -5.4 32 32 SSW 3 6 30.08 1019 10 16 0.00 0.00
6:56 pm 18:56 Clear 44 6.6 20 -6.4 39 39 Calm 30.08 1019 10 16 0.00 0.00
7:56 pm 19:56 Clear 40 4.4 21 -6.2 46 46 Calm 30.08 1019 10 16 0.00 0.00
8:56 pm 20:56 Clear 39 3.8 19 -7.1 45 45 Calm 30.06 1018 10 16 0.00 0.00
9:56 pm 21:56 Clear 38 3.1 19 -7.1 47 47 Calm 30.05 1018 10 16 0.00 0.00
10:56 pm 22:56 Clear 34 1.3 19 -7 54 54 Calm 30.04 1017 10 16 0.00 0.00
11:56 pm 23:56 Clear 35 1.4 19 -7.1 54 54 Calm 30.01 1016 10 16 0.00 0.00

Powered by AerisWeather